Notices

What's New in latest Release from April 7th, 2021:

- Updated Glossary, including Speed of Maximum Gust, and Total Hourly Precipitation

- Updated national and regional climate services offices contacts and prices information

- Addition of station inventory lists for 1981-2010, 1971-2000, and 1961-1990 Normals.

If you haven't already, please take our survey and provide feedback about our website: https://eccc.sondage-survey.ca/f/LanguageSelection.aspx?s=442ca660-fcf1-47c0-95a9-59707d6fd709

Hourly Data Report for January 18, 2020

SATURNA ISLAND CS
BRITISH COLUMBIA
Current Station Operator: ECCC - MSC

48°47'02.067" N
123°02'41.082" W
24.40 m
1017101
71473
WEZ

Download Data

Hourly Data (January 2020)
Hourly Data Report for January 18, 2020
TIME
LST
Temp Definition
°C
Dew Point Definition
°C
Rel Hum Definition
%
Precip. Amount Definition
mm

Wind Dir Definition
10's deg

Wind Spd Definition
km/h
Visibility Definition
km
Stn Press Definition
kPa
Hmdx Definition


Wind Chill Definition


Weather Definition


00:00 3.2 -0.8 75 0.0 9 38   101.46     LegendNANA
01:00 3.0 -0.7 77 0.0 8 45   101.38     LegendNANA
02:00 2.9 1.0 87 0.0 8 42   101.33     LegendNANA
03:00 3.0 1.2 88 0.0 8 43   101.27     LegendNANA
04:00 4.1 2.7 91 0.2 10 37   101.16     LegendNANA
05:00 6.1 3.1 81 0.2 14 50   101.11     LegendNANA
06:00 6.1 3.1 81 0.0 16 59   101.05     LegendNANA
07:00 5.9 2.9 81 0.0 16 56   101.09     LegendNANA
08:00 6.4 3.2 80 0.0 16 58   101.10     LegendNANA
09:00 6.7 3.5 80 0.0 17 56   101.19     LegendNANA
10:00 6.9 3.9 81 0.0 18 63   101.26     LegendNANA
11:00 7.3 4.4 82 0.0 18 61   101.36     LegendNANA
12:00 7.3 4.6 83 0.0 18 53   101.47     LegendNANA
13:00 7.8 4.5 79 0.0 18 47   101.51     LegendNANA
14:00 7.8 4.7 81 0.0 17 31   101.60     LegendNANA
15:00 8.0 5.1 82 0.0 16 37   101.63     LegendNANA
16:00 8.4 5.4 81 0.0 18 30   101.73     LegendNANA
17:00 8.4 5.6 83 0.0 16 33   101.73     LegendNANA
18:00 8.6 5.8 83 0.0 16 31   101.81     LegendNANA
19:00 8.6 6.1 84 0.0 17 27   101.86     LegendNANA
20:00 8.7 6.2 84 0.0 18 22   101.91     LegendNANA
21:00 8.8 6.1 83 0.0 18 26   101.93     LegendNANA
22:00 8.9 6.0 82 0.0 18 27   101.97     LegendNANA
23:00 8.9 6.0 82 0.0 17 25   102.00     LegendNANA

Notes on Data Quality.

Legend

  • E = Estimated
  • M = Missing
  • NA = Not Available*
  • [empty] = Indicates an unobserved value
Date modified: